| time (UTC) | temp F | wind direction | speed MPH | gust MPH | rain 1hr in | rain 24hr in | rain mn in | humidity % | barometer mb |
| 20260504081525 | 37 | 94 | 0.0 | 0.0 | 0.00 | 0.00 | 0.00 | 73 | 1009.7 |
| 20260504050010 | 39 | 94 | 0.0 | 1.0 | 0.00 | 0.00 | 0.00 | 65 | 1010.0 |
| 20260504044518 | 39 | 93 | 0.0 | 1.0 | 0.00 | 0.00 | 0.00 | 65 | 1010.1 |
| 20260504043020 | 38 | 93 | 0.0 | 1.0 | 0.00 | 0.00 | 0.00 | 65 | 1010.3 |
| 20260504041524 | 39 | 93 | 0.0 | 0.0 | 0.00 | 0.00 | 0.00 | 64 | 1010.2 |
| 20260504040028 | 40 | 93 | 0.0 | 1.0 | 0.00 | 0.00 | 0.00 | 62 | 1010.1 |
| 20260504034512 | 40 | 92 | 0.0 | 1.0 | 0.00 | 0.00 | 0.00 | 62 | 1010.1 |
| 20260504033019 | 40 | 92 | 0.0 | 1.0 | 0.00 | 0.00 | 0.00 | 60 | 1010.0 |
| 20260504031521 | 41 | 92 | 0.0 | 1.0 | 0.00 | 0.00 | 0.00 | 58 | 1009.9 |
| 20260504030031 | 42 | 92 | 0.0 | 0.0 | 0.00 | 0.00 | 0.00 | 58 | 1009.6 |
| 20260504024525 | 42 | 92 | 0.0 | 0.0 | 0.00 | 0.00 | 0.00 | 56 | 1009.7 |
| 20260504023013 | 42 | 249 | 0.0 | 1.0 | 0.00 | 0.00 | 0.00 | 55 | 1009.9 |
| 20260504021516 | 44 | 274 | 0.0 | 2.0 | 0.00 | 0.00 | 0.00 | 53 | 1009.8 |
| 20260504020034 | 44 | 252 | 0.0 | 3.0 | 0.00 | 0.00 | 0.00 | 52 | 1009.7 |
| 20260504014526 | 44 | 288 | 0.0 | 4.0 | 0.00 | 0.00 | 0.00 | 51 | 1009.5 |
| 20260504013034 | 44 | 316 | 0.0 | 2.0 | 0.00 | 0.00 | 0.00 | 50 | 1009.4 |
| 20260504011512 | 44 | 215 | 0.0 | 3.0 | 0.00 | 0.00 | 0.00 | 48 | 1009.4 |
| 20260504010022 | 45 | 64 | 0.0 | 4.0 | 0.00 | 0.00 | 0.00 | 45 | 1009.1 |
| 20260504004536 | 45 | 117 | 0.0 | 9.0 | 0.00 | 0.00 | 0.00 | 42 | 1008.9 |
| 20260504003025 | 44 | 250 | 1.0 | 5.0 | 0.00 | 0.00 | 0.00 | 42 | 1008.6 |
| 20260504001534 | 45 | 227 | 0.0 | 1.0 | 0.00 | 0.00 | 0.00 | 42 | 1008.2 |
| 20260504000016 | 46 | 266 | 0.0 | 5.0 | 0.00 | 0.00 | 0.00 | 38 | 1008.2 |
| 20260503234524 | 47 | 223 | 0.0 | 6.0 | 0.00 | 0.00 | 0.00 | 37 | 1008.1 |
| 20260503233026 | 47 | 304 | 1.0 | 11.0 | 0.00 | 0.00 | 0.00 | 37 | 1008.2 |
| 20260503231528 | 48 | 297 | 3.0 | 10.0 | 0.00 | 0.00 | 0.00 | 34 | 1007.9 |
| 20260503230030 | 49 | 288 | 3.0 | 13.0 | 0.00 | 0.00 | 0.00 | 35 | 1007.7 |
| 20260503224518 | 50 | 268 | 4.0 | 13.0 | 0.00 | 0.00 | 0.00 | 33 | 1007.7 |
| 20260503223008 | 51 | 76 | 1.0 | 5.0 | 0.00 | 0.00 | 0.00 | 39 | 1007.8 |
| 20260503221503 | 51 | 284 | 1.0 | 5.0 | 0.00 | 0.00 | 0.00 | 36 | 1007.7 |
| 20260503220021 | 50 | 297 | 2.0 | 14.0 | 0.00 | 0.00 | 0.00 | 36 | 1007.8 |
| 20260503214528 | 51 | 264 | 6.0 | 12.0 | 0.00 | 0.00 | 0.00 | 37 | 1007.7 |
| 20260503213029 | 50 | 250 | 5.0 | 10.0 | 0.00 | 0.00 | 0.00 | 38 | 1007.6 |
| 20260503211503 | 50 | 229 | 2.0 | 12.0 | 0.00 | 0.00 | 0.00 | 40 | 1007.5 |
| 20260503210015 | 49 | 289 | 4.0 | 11.0 | 0.00 | 0.00 | 0.00 | 38 | 1007.7 |
| 20260503204523 | 51 | 318 | 2.0 | 13.0 | 0.00 | 0.00 | 0.00 | 40 | 1007.7 |
| 20260503203015 | 50 | 273 | 2.0 | 10.0 | 0.00 | 0.00 | 0.00 | 47 | 1007.7 |
| 20260503201522 | 50 | 102 | 3.0 | 11.0 | 0.00 | 0.00 | 0.00 | 41 | 1007.7 |
| 20260503200026 | 48 | 117 | 2.0 | 7.0 | 0.00 | 0.00 | 0.00 | 45 | 1007.7 |
| 20260503194507 | 47 | 320 | 1.0 | 10.0 | 0.00 | 0.00 | 0.00 | 45 | 1007.6 |
| 20260503193011 | 47 | 295 | 3.0 | 6.0 | 0.00 | 0.00 | 0.00 | 48 | 1007.8 |
| 20260503191518 | 47 | 143 | 2.0 | 8.0 | 0.00 | 0.00 | 0.00 | 44 | 1007.7 |
| 20260503190031 | 50 | 283 | 3.0 | 9.0 | 0.00 | 0.00 | 0.00 | 48 | 1007.6 |
| 20260503184526 | 48 | 236 | 4.0 | 12.0 | 0.00 | 0.00 | 0.00 | 44 | 1007.5 |
| 20260503183011 | 48 | 281 | 5.0 | 12.0 | 0.00 | 0.00 | 0.00 | 41 | 1007.6 |
| 20260503181531 | 47 | 322 | 2.0 | 7.0 | 0.00 | 0.00 | 0.00 | 48 | 1007.6 |
| 20260503180032 | 46 | 142 | 2.0 | 12.0 | 0.00 | 0.00 | 0.00 | 47 | 1007.6 |
| 20260503174522 | 46 | 295 | 6.0 | 11.0 | 0.00 | 0.00 | 0.00 | 45 | 1007.7 |
| 20260503173026 | 45 | 21 | 3.0 | 6.0 | 0.00 | 0.00 | 0.00 | 49 | 1007.8 |
| 20260503171521 | 45 | 295 | 3.0 | 11.0 | 0.00 | 0.00 | 0.00 | 50 | 1007.7 |